x

Buoy F01 - West Penobscot Bay (44033) Wave Buoy

7:04 - Tue 3rd Mar 2015 All times are EST. -5 hours from GMT.

  • Sig Wave height 1.0ft
  • Peak Period 11s
  • Wind
    9mph, 11mph gusts
  • Sea Temp 31°f
  • Luft Temp 16°f
  • Sea Pressure 1026.6mb
  • Buoy F01 - West Penobscot Bay
  • Buoy F01 - West Penobscot Bay

More Historic Weather Station data

Upgrade to MSW Pro to gain access to the past 30 days of data for over 8000 Wavebouys and Weather Stations around the globe.

Join Pro

Comparision Forecast

View Surf forecast
   
Di 03/03 7:04 1ft 11s 9 11 mph 1026.6mb 31f 16f
6:04 1ft 11s 11 13 mph 1025.8mb 31f 16f
5:04 1.3ft 3s 13 18 mph 1024.8mb 31f 17f
4:04 1ft 3s 11 13 mph 1023.5mb 31f 17f
3:04 1.6ft 3s 13 16 mph 1022.4mb 31f 18f
2:04 1.6ft 3s 18 22 mph 1021.5mb 31f 19f
1:04 3.5ft 4s 22 25 mph 1020.3mb 31f 20f
12:04 3.5ft 4s 27 31 mph 1018.9mb 31f 20f
Mo 03/02 11:04 3ft 4s 22 29 mph 1017.8mb 31f 23f
10:04 2ft 3s 22 29 mph 1016.5mb 31f 25f
9:04 2ft 3s 22 27 mph 1015.5mb 31f 26f
8:04 2ft 3s 20 29 mph 1014.4mb 31f 27f
7:04 2.5ft 4s 22 31 mph 1013.8mb 31f 28f
6:04 2ft 4s 22 29 mph 1012.3mb 31f 29f
5:04 2.5ft 3s 25 36 mph 1010.9mb 31f 30f
4:04 2.5ft 3s 20 27 mph 1009.9mb 31f 30f
3:04 2.5ft 3s 25 29 mph 1008.9mb 31f 31f
2:04 2ft 2s 22 29 mph 1008.3mb 31f 31f
1:04 2ft 6s 20 25 mph 1008.1mb 31f 31f
12:04 2.5ft 6s 20 25 mph 1008.5mb 31f 29f
11:04 1.6ft 6s 18 25 mph 1008.9mb 31f 29f
10:04 2ft 6s 16 20 mph 1009.1mb 31f 28f
9:04 1.6ft 6s 4 7 mph 1009.7mb 31f 26f
8:04 1.6ft 5s 7 9 mph 1010.2mb 30f 25f
7:04 2ft 6s 9 11 mph 1010.5mb 30f 24f
6:04 1.6ft 6s 9 11 mph 1010.9mb 30f 25f
5:04 2ft 6s 7 9 mph 1011.3mb 30f 25f
4:04 2ft 6s 7 9 mph 1012.2mb 30f 26f
3:04 2.5ft 6s 9 11 mph 1013.3mb 30f 26f
2:04 2.5ft 6s 9 11 mph 1014.9mb 31f 26f
1:04 2.5ft 6s 4 7 mph 1016.7mb 31f 26f
12:04 2.5ft 6s 7 9 mph 1017.8mb 31f 27f
So 03/01 11:04 2.5ft 6s 9 11 mph 1019.3mb 31f 27f
10:04 3.5ft 5s 18 22 mph 1020.7mb 31f 28f
9:04 3ft 5s 18 20 mph 1022.1mb 31f 28f
8:04 3ft 5s 18 20 mph 1022.9mb 31f 29f
7:04 2.5ft 5s 18 20 mph 1024.6mb 31f 30f
6:04 2.5ft 4s 18 22 mph 1026.4mb 31f 30f
5:04 2ft 4s 18 20 mph 1027.4mb 31f 29f
4:04 1.3ft 2s 16 18 mph 1028.4mb 31f 29f
3:04 1ft 8s 9 13 mph 1029.6mb 31f 29f
2:04 1ft 8s 4 7 mph 1030.4mb 31f 28f
1:04 0.7ft  -  7 9 mph 1032mb 31f 26f
12:04 1ft 8s 9
mph
1033.5mb 31f 25f
11:04 0.7ft  -  7 9 mph 1035.4mb 31f 24f
10:04 1ft 11s 4 7 mph 1036.3mb 31f 24f
9:04 0.7ft  -  7
mph
1037mb 31f 23f
8:04 1ft 11s 7 9 mph 1037.3mb 31f 22f
7:04 1ft 11s 9
mph
1037.2mb 31f 23f
6:04 1ft 8s 7 9 mph 1037.3mb 31f 23f
5:04 1ft 8s 7 9 mph 1037.7mb 31f 24f
4:04 1.3ft 8s 7 9 mph 1037.3mb 30f 24f
3:04 1.3ft 8s 11 13 mph 1037.3mb 30f 24f
2:04 1.3ft 11s 11 13 mph 1037.9mb 30f 25f
1:04 1ft 11s 11
mph
1037.6mb 30f 24f
12:04 1ft 11s 9 11 mph 1037.2mb 30f 24f
Sa 02/28 11:04 1ft 11s 9 11 mph 1037.3mb 30f 24f
10:04 1ft 11s 9 11 mph 1037.5mb 31f 24f
9:04 1.3ft 11s 9
mph
1037.2mb 31f 25f
8:04 1.6ft 11s 7 9 mph 1036.8mb 31f 24f
7:04 1.6ft 11s 13 16 mph 1036.7mb 31f 26f
5:04 1.3ft 3s 18 20 mph 1036.5mb 31f 24f
4:04 1.6ft 3s 18 22 mph 1036.7mb 31f 23f
3:04 1.6ft 3s 18 22 mph 1036.8mb 31f 23f
2:04 1ft 3s 13 18 mph 1037mb 31f 22f
1:04 1.3ft 11s 9 13 mph 1037.6mb 31f 22f
12:04 1.3ft 11s 9 13 mph 1038.3mb 31f 19f
11:04 1.6ft 11s 7 11 mph 1038.6mb 31f 18f
10:04 1.3ft 11s 11 13 mph 1038.4mb 31f 16f
9:04 1.3ft 11s 7 11 mph 1038.3mb 31f 16f
8:04 1.3ft 11s 4 7 mph 1037.6mb 31f 18f
7:04 1.3ft 11s 7 9 mph 1036.9mb 31f 15f
6:04 1.3ft 11s 7 9 mph 1036.1mb 31f 14f
5:04 1.3ft 11s 7 9 mph 1035.1mb 31f 15f
4:04 1.6ft 11s 7 9 mph 1034.3mb 30f 15f
3:04 2ft 11s 11 16 mph 1033.6mb 30f 15f
2:04 1.6ft 11s 9
mph
1033.4mb 30f 15f
1:04 1.6ft 11s 9 11 mph 1032.8mb 30f 15f
12:04 1.6ft 11s 13 18 mph 1031.8mb 30f 16f
Fr 02/27 11:04 2ft 11s 11 13 mph 1031.2mb 30f 15f
10:04 2.5ft 11s 13 16 mph 1030.4mb 31f 17f
9:04 2.5ft 11s 13 16 mph 1029.5mb 31f 18f
8:04 2ft 11s 11 13 mph 1028.6mb 31f 19f
7:04 1.6ft 11s 9 13 mph 1028mb 31f 20f
6:04 1.6ft 11s 9 11 mph 1027mb 31f 20f
5:04 2ft 11s 11 13 mph 1026.1mb 31f 20f
4:04 2ft 11s 11 16 mph 1025.4mb 32f 20f
3:04 1.6ft 11s 11 18 mph 1025.1mb 32f 20f
2:04 1.6ft 11s 9 13 mph 1025mb 32f 19f